| time (UTC) | temp F | wind direction | speed knots | gust knots | rain 1hr in | rain 24hr in | rain mn in | humidity % | barometer mb |
| 20260507030221 | 45 | 319 | 2.6 | 7.0 | 0.00 | 0.50 | 0.41 | 95 | 1011.7 |
| 20260507025947 | 45 | 301 | 1.7 | 4.3 | 0.00 | 0.50 | 0.41 | 95 | 1011.7 |
| 20260507024716 | 45 | 300 | 0.9 | 4.3 | 0.00 | 0.51 | 0.41 | 95 | 1011.7 |
| 20260507023717 | 45 | 300 | 1.7 | 3.5 | 0.00 | 0.54 | 0.41 | 95 | 1011.6 |
| 20260507023216 | 45 | 300 | 0.9 | 3.5 | 0.00 | 0.55 | 0.41 | 95 | 1011.6 |
| 20260507022717 | 45 | 300 | 0.0 | 1.7 | 0.00 | 0.55 | 0.41 | 95 | 1011.6 |
| 20260507022216 | 45 | 300 | 0.0 | 1.7 | 0.00 | 0.56 | 0.41 | 95 | 1011.7 |
| 20260507021717 | 45 | 300 | 0.0 | 1.7 | 0.00 | 0.56 | 0.41 | 95 | 1011.9 |
| 20260507021216 | 44 | 300 | 0.9 | 1.7 | 0.00 | 0.56 | 0.41 | 95 | 1011.9 |
| 20260507020216 | 44 | 300 | 0.9 | 2.6 | 0.00 | 0.57 | 0.41 | 95 | 1012.0 |
| 20260507015216 | 44 | 300 | 0.0 | 0.9 | 0.00 | 0.58 | 0.41 | 95 | 1011.7 |
| 20260507014716 | 44 | 300 | 0.0 | 0.9 | 0.00 | 0.58 | 0.41 | 94 | 1012.0 |
| 20260507014217 | 44 | 300 | 0.0 | 0.9 | 0.00 | 0.59 | 0.41 | 94 | 1012.1 |
| 20260507013716 | 44 | 300 | 0.0 | 0.9 | 0.00 | 0.59 | 0.41 | 94 | 1011.9 |
| 20260507013216 | 44 | 300 | 0.0 | 0.9 | 0.00 | 0.60 | 0.41 | 94 | 1011.9 |
| 20260507012716 | 44 | 300 | 0.0 | 0.9 | 0.00 | 0.61 | 0.41 | 94 | 1011.9 |
| 20260507012217 | 44 | 300 | 0.0 | 0.9 | 0.00 | 0.62 | 0.41 | 94 | 1011.7 |
| 20260507011716 | 44 | 300 | 0.0 | 0.9 | 0.00 | 0.62 | 0.41 | 94 | 1011.7 |
| 20260507011440 | 44 | 300 | 0.0 | 0.9 | 0.00 | 0.62 | 0.41 | 94 | 1011.6 |
| 20260507010716 | 44 | 300 | 0.0 | 1.7 | 0.00 | 0.63 | 0.41 | 94 | 1011.4 |
| 20260507010216 | 44 | 300 | 0.0 | 1.7 | 0.00 | 0.63 | 0.41 | 94 | 1011.3 |
| 20260507005716 | 44 | 300 | 0.0 | 1.7 | 0.00 | 0.63 | 0.41 | 94 | 1011.3 |
| 20260507005436 | 44 | 300 | 0.0 | 1.7 | 0.00 | 0.63 | 0.41 | 94 | 1011.3 |
| 20260507004716 | 44 | 300 | 0.0 | 1.7 | 0.00 | 0.64 | 0.41 | 94 | 1011.3 |
| 20260507004216 | 44 | 300 | 0.0 | 1.7 | 0.00 | 0.64 | 0.41 | 94 | 1011.2 |
| 20260507003717 | 44 | 300 | 0.0 | 0.9 | 0.00 | 0.64 | 0.41 | 94 | 1011.2 |
| 20260507003217 | 44 | 300 | 0.0 | 0.9 | 0.00 | 0.64 | 0.41 | 94 | 1011.1 |
| 20260507002717 | 44 | 300 | 0.0 | 0.9 | 0.00 | 0.64 | 0.41 | 94 | 1011.0 |
| 20260507002216 | 44 | 300 | 0.0 | 2.6 | 0.00 | 0.65 | 0.41 | 94 | 1011.0 |
| 20260507001716 | 44 | 300 | 0.9 | 3.5 | 0.00 | 0.65 | 0.41 | 94 | 1011.0 |
| 20260507001437 | 45 | 300 | 0.9 | 3.5 | 0.00 | 0.65 | 0.41 | 94 | 1010.9 |
| 20260507000716 | 45 | 301 | 0.9 | 3.5 | 0.00 | 0.66 | 0.41 | 94 | 1010.9 |
| 20260507000216 | 44 | 301 | 0.0 | 0.9 | 0.00 | 0.68 | 0.41 | 94 | 1010.9 |
| 20260506235937 | 45 | 301 | 0.0 | 0.9 | 0.00 | 0.68 | 0.41 | 94 | 1010.7 |
| 20260506235216 | 45 | 301 | 0.0 | 2.6 | 0.00 | 0.68 | 0.41 | 94 | 1010.7 |
| 20260506234939 | 45 | 301 | 0.9 | 2.6 | 0.00 | 0.68 | 0.41 | 94 | 1010.7 |
| 20260506234216 | 45 | 301 | 0.0 | 1.7 | 0.00 | 0.68 | 0.41 | 94 | 1010.6 |
| 20260506233716 | 45 | 301 | 0.0 | 2.6 | 0.00 | 0.68 | 0.41 | 94 | 1010.6 |
| 20260506232716 | 45 | 301 | 0.9 | 6.1 | 0.00 | 0.68 | 0.41 | 94 | 1010.7 |
| 20260506232216 | 45 | 301 | 1.7 | 6.1 | 0.00 | 0.68 | 0.41 | 94 | 1010.6 |
| 20260506231716 | 45 | 321 | 0.9 | 3.5 | 0.00 | 0.68 | 0.41 | 94 | 1010.7 |
| 20260506231216 | 45 | 321 | 0.9 | 3.5 | 0.00 | 0.68 | 0.41 | 95 | 1010.6 |
| 20260506230716 | 45 | 286 | 0.9 | 3.5 | 0.00 | 0.68 | 0.41 | 95 | 1010.3 |
| 20260506230216 | 45 | 286 | 0.0 | 1.7 | 0.00 | 0.68 | 0.41 | 95 | 1010.1 |
| 20260506225716 | 45 | 286 | 0.9 | 3.5 | 0.00 | 0.68 | 0.41 | 95 | 1010.0 |
| 20260506225439 | 45 | 286 | 0.9 | 3.5 | 0.00 | 0.68 | 0.41 | 95 | 1010.0 |
| 20260506224716 | 45 | 286 | 0.9 | 1.7 | 0.00 | 0.68 | 0.41 | 95 | 1010.0 |
| 20260506223716 | 45 | 286 | 0.9 | 3.5 | 0.00 | 0.68 | 0.41 | 95 | 1010.0 |
| 20260506223218 | 45 | 286 | 1.7 | 3.5 | 0.00 | 0.68 | 0.41 | 95 | 1010.1 |
| 20260506222716 | 45 | 286 | 1.7 | 3.5 | 0.00 | 0.68 | 0.41 | 96 | 1010.2 |
| 20260506222216 | 45 | 286 | 0.9 | 3.5 | 0.00 | 0.68 | 0.41 | 96 | 1010.2 |
| 20260506221934 | 45 | 286 | 1.7 | 3.5 | 0.00 | 0.68 | 0.41 | 96 | 1010.2 |
| 20260506221216 | 45 | 286 | 0.9 | 2.6 | 0.00 | 0.68 | 0.41 | 96 | 1010.2 |
| 20260506220715 | 45 | 286 | 0.9 | 3.5 | 0.00 | 0.68 | 0.41 | 96 | 1010.3 |
| 20260506220216 | 45 | 286 | 0.9 | 3.5 | 0.00 | 0.68 | 0.41 | 96 | 1010.4 |
| 20260506215719 | 45 | 286 | 1.7 | 5.2 | 0.00 | 0.68 | 0.41 | 96 | 1010.4 |
| 20260506215216 | 45 | 286 | 2.6 | 5.2 | 0.00 | 0.68 | 0.41 | 96 | 1010.4 |
| 20260506214934 | 45 | 286 | 1.7 | 6.1 | 0.00 | 0.68 | 0.41 | 96 | 1010.2 |
| 20260506214216 | 45 | 286 | 1.7 | 6.1 | 0.00 | 0.68 | 0.41 | 96 | 1010.2 |
| 20260506213717 | 45 | 286 | 2.6 | 5.2 | 0.00 | 0.68 | 0.41 | 96 | 1010.1 |
| 20260506213217 | 45 | 286 | 1.7 | 5.2 | 0.00 | 0.68 | 0.41 | 96 | 1010.1 |
| 20260506212716 | 45 | 285 | 1.7 | 3.5 | 0.00 | 0.68 | 0.41 | 97 | 1010.0 |
| 20260506212216 | 45 | 285 | 1.7 | 6.1 | 0.00 | 0.68 | 0.41 | 97 | 1010.0 |
| 20260506211937 | 45 | 285 | 2.6 | 6.1 | 0.00 | 0.68 | 0.41 | 97 | 1010.0 |
| 20260506211433 | 45 | 306 | 1.7 | 4.3 | 0.00 | 0.68 | 0.41 | 97 | 1010.0 |
| 20260506210716 | 44 | 309 | 1.7 | 4.3 | 0.00 | 0.68 | 0.41 | 97 | 1010.0 |
| 20260506210438 | 44 | 309 | 2.6 | 7.0 | 0.00 | 0.68 | 0.41 | 97 | 1009.9 |
| 20260506205715 | 44 | 316 | 2.6 | 7.0 | 0.00 | 0.68 | 0.41 | 97 | 1010.0 |
| 20260506205216 | 44 | 299 | 2.6 | 6.1 | 0.00 | 0.69 | 0.41 | 97 | 1010.0 |
| 20260506204716 | 44 | 297 | 3.5 | 7.8 | 0.00 | 0.69 | 0.41 | 97 | 1010.0 |
| 20260506204217 | 44 | 307 | 3.5 | 7.8 | 0.00 | 0.71 | 0.41 | 97 | 1010.0 |
| 20260506203716 | 44 | 295 | 2.6 | 7.8 | 0.00 | 0.71 | 0.41 | 97 | 1009.9 |
| 20260506203437 | 44 | 355 | 2.6 | 5.2 | 0.00 | 0.71 | 0.41 | 97 | 1009.8 |
| 20260506202716 | 44 | 355 | 2.6 | 5.2 | 0.00 | 0.71 | 0.41 | 97 | 1009.8 |
| 20260506202444 | 44 | 355 | 2.6 | 5.2 | 0.00 | 0.71 | 0.41 | 97 | 1009.7 |
| 20260506201715 | 44 | 355 | 2.6 | 7.8 | 0.00 | 0.71 | 0.41 | 97 | 1009.6 |
| 20260506201216 | 44 | 346 | 3.5 | 8.7 | 0.00 | 0.74 | 0.41 | 97 | 1009.6 |
| 20260506200716 | 44 | 319 | 3.5 | 8.7 | 0.00 | 0.74 | 0.41 | 97 | 1009.5 |
| 20260506200435 | 44 | 307 | 4.3 | 7.8 | 0.00 | 0.74 | 0.41 | 97 | 1009.6 |
| 20260506195715 | 44 | 310 | 3.5 | 8.7 | 0.00 | 0.74 | 0.41 | 97 | 1009.5 |
| 20260506195217 | 44 | 333 | 4.3 | 10.4 | 0.00 | 0.74 | 0.41 | 97 | 1009.6 |
| 20260506194716 | 44 | 347 | 4.3 | 10.4 | 0.00 | 0.74 | 0.41 | 97 | 1009.7 |
| 20260506194216 | 44 | 355 | 4.3 | 10.4 | 0.00 | 0.74 | 0.41 | 97 | 1009.6 |
| 20260506193715 | 44 | 350 | 5.2 | 10.4 | 0.00 | 0.74 | 0.41 | 97 | 1009.5 |
| 20260506193216 | 44 | 0 | 4.3 | 8.7 | 0.00 | 0.74 | 0.41 | 97 | 1009.6 |
| 20260506192933 | 44 | 346 | 4.3 | 8.7 | 0.00 | 0.74 | 0.41 | 97 | 1009.5 |
| 20260506192216 | 44 | 322 | 3.5 | 9.6 | 0.00 | 0.74 | 0.41 | 97 | 1009.5 |
| 20260506191937 | 44 | 302 | 2.6 | 9.6 | 0.00 | 0.74 | 0.41 | 97 | 1009.5 |
| 20260506191215 | 44 | 313 | 2.6 | 7.0 | 0.00 | 0.74 | 0.41 | 97 | 1009.5 |
| 20260506190716 | 44 | 302 | 2.6 | 7.0 | 0.00 | 0.74 | 0.41 | 97 | 1009.4 |
| 20260506190216 | 44 | 355 | 4.3 | 9.6 | 0.00 | 0.74 | 0.41 | 97 | 1009.3 |
| 20260506185716 | 44 | 5 | 4.3 | 9.6 | 0.00 | 0.74 | 0.41 | 97 | 1009.2 |
| 20260506185216 | 44 | 355 | 3.5 | 8.7 | 0.00 | 0.74 | 0.41 | 97 | 1009.1 |
| 20260506184716 | 44 | 350 | 3.5 | 7.8 | 0.00 | 0.74 | 0.41 | 97 | 1009.1 |
| 20260506184216 | 44 | 341 | 3.5 | 8.7 | 0.00 | 0.74 | 0.41 | 97 | 1009.2 |
| 20260506183937 | 44 | 309 | 3.5 | 9.6 | 0.00 | 0.74 | 0.41 | 97 | 1009.3 |
| 20260506183215 | 44 | 5 | 4.3 | 9.6 | 0.00 | 0.74 | 0.41 | 97 | 1009.3 |
| 20260506182716 | 44 | 341 | 3.5 | 8.7 | 0.00 | 0.74 | 0.41 | 97 | 1009.2 |
| 20260506182431 | 44 | 28 | 3.5 | 9.6 | 0.00 | 0.74 | 0.41 | 97 | 1009.1 |
| 20260506181716 | 44 | 355 | 3.5 | 9.6 | 0.00 | 0.74 | 0.41 | 97 | 1009.1 |
| 20260506181215 | 44 | 323 | 4.3 | 8.7 | 0.00 | 0.75 | 0.41 | 97 | 1009.0 |
| 20260506180715 | 44 | 355 | 4.3 | 8.7 | 0.00 | 0.76 | 0.41 | 97 | 1008.9 |
| 20260506180215 | 45 | 355 | 3.5 | 8.7 | 0.00 | 0.80 | 0.41 | 97 | 1008.9 |
| 20260506175716 | 45 | 320 | 3.5 | 7.8 | 0.00 | 0.81 | 0.41 | 97 | 1008.7 |
| 20260506175216 | 45 | 355 | 3.5 | 7.8 | 0.00 | 0.83 | 0.41 | 97 | 1008.7 |
| 20260506174940 | 45 | 350 | 4.3 | 8.7 | 0.00 | 0.91 | 0.41 | 97 | 1008.5 |
| 20260506174216 | 45 | 13 | 4.3 | 8.7 | 0.00 | 0.91 | 0.41 | 97 | 1008.5 |
| 20260506173715 | 45 | 348 | 2.6 | 7.8 | 0.00 | 0.92 | 0.41 | 97 | 1008.4 |
| 20260506173216 | 46 | 324 | 2.6 | 7.0 | 0.00 | 0.94 | 0.41 | 97 | 1008.4 |
| 20260506172215 | 46 | 296 | 2.6 | 4.3 | 0.00 | 0.94 | 0.41 | 97 | 1008.3 |
| 20260506171715 | 45 | 319 | 2.6 | 5.2 | 0.01 | 0.94 | 0.41 | 97 | 1008.2 |
| 20260506171216 | 46 | 319 | 2.6 | 7.0 | 0.01 | 0.94 | 0.41 | 97 | 1008.4 |
| 20260506170715 | 46 | 317 | 1.7 | 7.0 | 0.01 | 0.95 | 0.41 | 97 | 1008.4 |
| 20260506170215 | 45 | 327 | 1.7 | 3.5 | 0.01 | 1.05 | 0.41 | 97 | 1008.2 |
| 20260506165715 | 45 | 330 | 1.7 | 4.3 | 0.01 | 1.05 | 0.41 | 97 | 1008.3 |
| 20260506165216 | 45 | 329 | 2.6 | 5.2 | 0.01 | 1.05 | 0.41 | 97 | 1008.2 |
| 20260506164940 | 45 | 333 | 2.6 | 5.2 | 0.01 | 1.05 | 0.41 | 97 | 1008.1 |
| 20260506164215 | 45 | 0 | 2.6 | 6.1 | 0.02 | 1.05 | 0.41 | 97 | 1008.2 |
| 20260506163716 | 45 | 5 | 2.6 | 6.1 | 0.02 | 1.05 | 0.41 | 97 | 1008.1 |
| 20260506163215 | 45 | 14 | 3.5 | 7.8 | 0.02 | 1.05 | 0.41 | 97 | 1008.3 |
| 20260506162715 | 45 | 12 | 3.5 | 7.8 | 0.02 | 1.05 | 0.41 | 97 | 1008.2 |
| 20260506162216 | 45 | 355 | 3.5 | 7.0 | 0.02 | 1.05 | 0.41 | 97 | 1008.3 |
| 20260506161715 | 45 | 320 | 2.6 | 7.0 | 0.01 | 1.04 | 0.40 | 97 | 1008.4 |
| 20260506161216 | 45 | 5 | 2.6 | 7.0 | 0.01 | 1.04 | 0.40 | 97 | 1008.3 |
| 20260506160715 | 45 | 5 | 2.6 | 7.0 | 0.01 | 1.04 | 0.40 | 97 | 1008.2 |
| 20260506160216 | 44 | 0 | 2.6 | 7.0 | 0.01 | 1.04 | 0.40 | 97 | 1008.4 |
| 20260506155715 | 44 | 5 | 1.7 | 4.3 | 0.01 | 1.04 | 0.40 | 97 | 1008.6 |
| 20260506155216 | 44 | 5 | 2.6 | 5.2 | 0.01 | 1.04 | 0.40 | 97 | 1008.6 |
| 20260506154716 | 44 | 348 | 3.5 | 8.7 | 0.01 | 1.04 | 0.40 | 97 | 1008.6 |
| 20260506154215 | 44 | 5 | 3.5 | 8.7 | 0.00 | 1.03 | 0.39 | 97 | 1008.6 |
| 20260506153715 | 44 | 355 | 3.5 | 7.8 | 0.00 | 1.03 | 0.39 | 97 | 1008.6 |
| 20260506153215 | 44 | 355 | 3.5 | 7.8 | 0.01 | 1.03 | 0.39 | 97 | 1008.7 |
| 20260506152716 | 44 | 9 | 3.5 | 7.0 | 0.01 | 1.03 | 0.39 | 97 | 1008.6 |
| 20260506152215 | 44 | 5 | 3.5 | 7.0 | 0.01 | 1.03 | 0.39 | 97 | 1008.5 |
| 20260506151715 | 44 | 5 | 3.5 | 7.0 | 0.01 | 1.03 | 0.39 | 97 | 1008.4 |
| 20260506151215 | 44 | 5 | 3.5 | 7.0 | 0.01 | 1.03 | 0.39 | 97 | 1008.5 |
| 20260506150715 | 44 | 5 | 3.5 | 7.0 | 0.02 | 1.03 | 0.39 | 97 | 1008.4 |
| 20260506145715 | 44 | 22 | 3.5 | 6.1 | 0.02 | 1.03 | 0.39 | 97 | 1008.1 |
| 20260506145215 | 44 | 15 | 2.6 | 6.1 | 0.03 | 1.03 | 0.39 | 97 | 1008.3 |
| 20260506144715 | 44 | 76 | 1.7 | 4.3 | 0.03 | 1.03 | 0.39 | 97 | 1008.1 |
| 20260506144216 | 44 | 76 | 2.6 | 4.3 | 0.03 | 1.03 | 0.39 | 97 | 1007.9 |
| 20260506143939 | 44 | 76 | 2.6 | 4.3 | 0.03 | 1.03 | 0.39 | 97 | 1007.9 |
| 20260506143215 | 44 | 76 | 2.6 | 6.1 | 0.03 | 1.02 | 0.38 | 97 | 1007.9 |
| 20260506142715 | 44 | 122 | 2.6 | 6.1 | 0.03 | 1.02 | 0.38 | 97 | 1007.7 |
| 20260506142215 | 44 | 59 | 2.6 | 5.2 | 0.03 | 1.02 | 0.38 | 97 | 1007.9 |
| 20260506141716 | 44 | 59 | 2.6 | 5.2 | 0.04 | 1.02 | 0.38 | 97 | 1007.9 |
| 20260506141215 | 44 | 60 | 2.6 | 7.0 | 0.04 | 1.02 | 0.38 | 97 | 1007.9 |
| 20260506140715 | 44 | 59 | 2.6 | 7.0 | 0.04 | 1.01 | 0.37 | 97 | 1008.0 |
| 20260506140215 | 43 | 80 | 2.6 | 6.1 | 0.04 | 1.01 | 0.37 | 97 | 1007.8 |
| 20260506135715 | 43 | 86 | 2.6 | 7.0 | 0.05 | 1.01 | 0.36 | 96 | 1007.9 |
| 20260506135215 | 43 | 87 | 3.5 | 7.0 | 0.05 | 1.00 | 0.36 | 96 | 1007.9 |
| 20260506134715 | 43 | 60 | 3.5 | 6.1 | 0.05 | 1.00 | 0.36 | 96 | 1008.0 |
| 20260506134215 | 43 | 60 | 3.5 | 6.1 | 0.06 | 1.00 | 0.36 | 96 | 1007.9 |
| 20260506133716 | 43 | 49 | 2.6 | 6.1 | 0.07 | 1.00 | 0.36 | 96 | 1008.0 |
| 20260506133215 | 43 | 74 | 3.5 | 7.0 | 0.07 | 0.99 | 0.35 | 96 | 1008.1 |
| 20260506132715 | 43 | 55 | 3.5 | 7.8 | 0.08 | 0.99 | 0.35 | 96 | 1008.1 |
| 20260506132214 | 43 | 51 | 3.5 | 7.8 | 0.09 | 0.99 | 0.35 | 96 | 1008.2 |
| 20260506131939 | 43 | 39 | 2.6 | 7.8 | 0.08 | 0.98 | 0.34 | 96 | 1008.3 |
| 20260506131215 | 43 | 17 | 2.6 | 7.8 | 0.09 | 0.98 | 0.34 | 96 | 1008.2 |
| 20260506130936 | 43 | 57 | 3.5 | 7.8 | 0.08 | 0.97 | 0.33 | 96 | 1008.1 |
| 20260506130215 | 43 | 64 | 3.5 | 7.8 | 0.09 | 0.97 | 0.33 | 96 | 1008.2 |
| 20260506125716 | 43 | 55 | 3.5 | 7.8 | 0.09 | 0.96 | 0.32 | 96 | 1008.1 |
| 20260506125215 | 43 | 40 | 3.5 | 7.8 | 0.08 | 0.95 | 0.31 | 96 | 1008.2 |
| 20260506124715 | 43 | 26 | 2.6 | 5.2 | 0.08 | 0.95 | 0.30 | 96 | 1008.4 |
| 20260506124216 | 43 | 58 | 2.6 | 5.2 | 0.07 | 0.94 | 0.30 | 96 | 1008.2 |
| 20260506123715 | 43 | 55 | 3.5 | 9.6 | 0.06 | 0.93 | 0.29 | 96 | 1008.0 |
| 20260506123436 | 43 | 54 | 4.3 | 9.6 | 0.06 | 0.92 | 0.28 | 96 | 1008.0 |
| 20260506122715 | 43 | 56 | 3.5 | 7.8 | 0.05 | 0.91 | 0.27 | 96 | 1008.1 |
| 20260506122215 | 43 | 52 | 3.5 | 7.8 | 0.04 | 0.90 | 0.26 | 96 | 1008.0 |
| 20260506121715 | 43 | 68 | 4.3 | 8.7 | 0.05 | 0.90 | 0.26 | 96 | 1007.8 |
| 20260506121215 | 43 | 56 | 4.3 | 9.6 | 0.04 | 0.89 | 0.25 | 96 | 1008.0 |
| 20260506120715 | 43 | 57 | 4.3 | 9.6 | 0.04 | 0.89 | 0.24 | 96 | 1008.0 |
| 20260506120216 | 43 | 62 | 4.3 | 10.4 | 0.04 | 0.88 | 0.24 | 96 | 1007.8 |
| 20260506115932 | 43 | 54 | 4.3 | 10.4 | 0.03 | 0.87 | 0.23 | 96 | 1008.0 |
| 20260506115215 | 43 | 51 | 4.3 | 10.4 | 0.04 | 0.87 | 0.23 | 96 | 1007.7 |
| 20260506114716 | 43 | 96 | 4.3 | 9.6 | 0.05 | 0.87 | 0.23 | 96 | 1007.7 |
| 20260506114215 | 43 | 59 | 5.2 | 11.3 | 0.06 | 0.87 | 0.23 | 96 | 1007.9 |
| 20260506113715 | 43 | 63 | 5.2 | 11.3 | 0.06 | 0.87 | 0.23 | 96 | 1008.0 |
| 20260506113215 | 43 | 45 | 4.3 | 10.4 | 0.06 | 0.86 | 0.22 | 96 | 1008.2 |
| 20260506112715 | 43 | 57 | 4.3 | 9.6 | 0.06 | 0.86 | 0.22 | 96 | 1008.1 |
| 20260506112215 | 43 | 38 | 4.3 | 9.6 | 0.06 | 0.86 | 0.22 | 96 | 1008.0 |
| 20260506111715 | 43 | 56 | 4.3 | 9.6 | 0.06 | 0.85 | 0.21 | 96 | 1008.2 |
| 20260506111215 | 43 | 57 | 4.3 | 9.6 | 0.06 | 0.85 | 0.21 | 96 | 1008.5 |
| 20260506110715 | 43 | 68 | 4.3 | 10.4 | 0.06 | 0.85 | 0.21 | 96 | 1008.3 |
| 20260506110215 | 43 | 54 | 5.2 | 10.4 | 0.05 | 0.84 | 0.20 | 96 | 1008.4 |
| 20260506105715 | 43 | 63 | 5.2 | 9.6 | 0.06 | 0.84 | 0.19 | 96 | 1008.5 |
| 20260506105215 | 43 | 47 | 4.3 | 9.6 | 0.05 | 0.83 | 0.19 | 96 | 1008.6 |
| 20260506104715 | 43 | 42 | 3.5 | 9.6 | 0.04 | 0.82 | 0.18 | 96 | 1008.5 |
| 20260506104216 | 44 | 53 | 3.5 | 7.8 | 0.03 | 0.81 | 0.17 | 96 | 1008.3 |
| 20260506103713 | 44 | 57 | 3.5 | 7.0 | 0.04 | 0.81 | 0.17 | 96 | 1008.3 |
| 20260506102712 | 44 | 41 | 4.3 | 9.6 | 0.05 | 0.80 | 0.16 | 96 | 1008.0 |
| 20260506102213 | 44 | 51 | 3.5 | 8.7 | 0.05 | 0.80 | 0.16 | 96 | 1007.9 |
| 20260506101713 | 43 | 86 | 3.5 | 7.8 | 0.05 | 0.79 | 0.15 | 96 | 1007.8 |
| 20260506100213 | 43 | 75 | 3.5 | 9.6 | 0.05 | 0.79 | 0.14 | 96 | 1007.9 |
| 20260506095936 | 43 | 59 | 4.3 | 9.6 | 0.05 | 0.78 | 0.14 | 96 | 1007.8 |
| 20260506095432 | 43 | 109 | 3.5 | 9.6 | 0.05 | 0.78 | 0.14 | 96 | 1007.7 |
| 20260506094712 | 43 | 69 | 3.5 | 8.7 | 0.06 | 0.78 | 0.14 | 96 | 1007.7 |
| 20260506094213 | 44 | 75 | 4.3 | 8.7 | 0.07 | 0.78 | 0.14 | 96 | 1007.8 |
| 20260506093713 | 44 | 130 | 5.2 | 10.4 | 0.06 | 0.77 | 0.13 | 96 | 1007.8 |
| 20260506093212 | 44 | 69 | 4.3 | 10.4 | 0.06 | 0.76 | 0.12 | 96 | 1008.0 |
| 20260506092933 | 44 | 73 | 4.3 | 10.4 | 0.05 | 0.75 | 0.11 | 96 | 1008.1 |
| 20260506092213 | 44 | 72 | 4.3 | 10.4 | 0.06 | 0.75 | 0.10 | 96 | 1008.2 |
| 20260506091714 | 44 | 50 | 4.3 | 10.4 | 0.05 | 0.74 | 0.10 | 96 | 1008.2 |
| 20260506091213 | 44 | 78 | 5.2 | 10.4 | 0.06 | 0.74 | 0.10 | 96 | 1008.3 |
| 20260506090713 | 44 | 47 | 4.3 | 9.6 | 0.06 | 0.74 | 0.10 | 96 | 1008.6 |
| 20260506090447 | 43 | 57 | 5.2 | 10.4 | 0.06 | 0.74 | 0.10 | 96 | 1008.7 |
| 20260506085933 | 44 | 61 | 5.2 | 10.4 | 0.06 | 0.73 | 0.09 | 96 | 1008.7 |
| 20260506085430 | 44 | 80 | 5.2 | 10.4 | 0.07 | 0.73 | 0.08 | 96 | 1008.9 |
| 20260506084712 | 44 | 5 | 5.2 | 11.3 | 0.07 | 0.72 | 0.08 | 96 | 1009.1 |
| 20260506084213 | 44 | 42 | 4.3 | 11.3 | 0.06 | 0.71 | 0.07 | 96 | 1008.8 |
| 20260506083712 | 45 | 52 | 5.2 | 10.4 | 0.06 | 0.71 | 0.07 | 96 | 1008.9 |
| 20260506083437 | 45 | 23 | 6.1 | 12.2 | 0.05 | 0.70 | 0.06 | 96 | 1008.7 |
| 20260506082713 | 46 | 44 | 6.1 | 12.2 | 0.05 | 0.70 | 0.06 | 96 | 1008.7 |
| 20260506082213 | 46 | 39 | 6.1 | 13.0 | 0.04 | 0.69 | 0.05 | 96 | 1008.8 |
| 20260506081712 | 47 | 76 | 6.1 | 13.0 | 0.04 | 0.69 | 0.05 | 96 | 1008.7 |
| 20260506081213 | 47 | 55 | 6.1 | 12.2 | 0.03 | 0.68 | 0.04 | 96 | 1008.3 |
| 20260506080936 | 47 | 45 | 5.2 | 12.2 | 0.03 | 0.68 | 0.04 | 96 | 1008.3 |
| 20260506080213 | 47 | 49 | 4.3 | 8.7 | 0.03 | 0.68 | 0.04 | 96 | 1008.6 |
| 20260506073213 | 47 | 61 | 2.6 | 7.8 | 0.00 | 0.72 | 0.01 | 96 | 1008.3 |
| 20260506072943 | 48 | 74 | 1.7 | 4.3 | 0.00 | 0.72 | 0.01 | 96 | 1008.4 |
| 20260506072213 | 48 | 75 | 2.6 | 6.1 | 0.01 | 0.72 | 0.01 | 96 | 1008.4 |
| 20260506071714 | 48 | 75 | 2.6 | 6.1 | 0.01 | 0.72 | 0.01 | 96 | 1008.2 |
| 20260506071212 | 48 | 76 | 2.6 | 7.0 | 0.01 | 0.72 | 0.01 | 96 | 1008.0 |
| 20260506070712 | 48 | 77 | 2.6 | 7.0 | 0.01 | 0.72 | 0.01 | 96 | 1007.9 |
| 20260506070213 | 48 | 115 | 1.7 | 6.1 | 0.01 | 0.72 | 0.01 | 96 | 1008.1 |
| 20260506062212 | 48 | 119 | 2.6 | 7.8 | 0.00 | 0.71 | 0.00 | 96 | 1008.3 |
| 20260506061712 | 48 | 111 | 1.7 | 3.5 | 0.00 | 0.71 | 0.00 | 96 | 1009.4 |
| 20260506061213 | 48 | 111 | 1.7 | 5.2 | 0.00 | 0.71 | 0.00 | 96 | 1008.9 |
| 20260506060713 | 48 | 111 | 0.9 | 5.2 | 0.00 | 0.71 | 0.00 | 96 | 1009.2 |
| 20260506060438 | 48 | 111 | 1.7 | 2.6 | 0.00 | 0.71 | 0.00 | 96 | 1008.8 |
| 20260506051212 | 48 | 108 | 0.9 | 2.6 | 0.00 | 0.72 | 0.00 | 96 | 1010.0 |
| 20260506050712 | 48 | 108 | 0.9 | 3.5 | 0.00 | 0.72 | 0.00 | 95 | 1010.1 |
| 20260506050213 | 48 | 108 | 0.9 | 3.5 | 0.00 | 0.72 | 0.00 | 96 | 1009.7 |
| 20260506044712 | 48 | 98 | 0.9 | 3.5 | 0.00 | 0.72 | 0.00 | 95 | 1009.8 |
| 20260506044433 | 48 | 98 | 0.9 | 1.7 | 0.00 | 0.72 | 0.00 | 95 | 1009.9 |
| 20260506043713 | 47 | 98 | 0.9 | 2.6 | 0.00 | 0.72 | 0.00 | 95 | 1010.3 |
| 20260506043212 | 47 | 98 | 1.7 | 3.5 | 0.00 | 0.72 | 0.00 | 95 | 1010.2 |
| 20260506042712 | 47 | 98 | 1.7 | 3.5 | 0.01 | 0.72 | 0.00 | 95 | 1009.8 |
| 20260506042212 | 47 | 98 | 0.9 | 2.6 | 0.03 | 0.72 | 0.00 | 95 | 1010.2 |
| 20260506041712 | 47 | 98 | 0.9 | 2.6 | 0.05 | 0.72 | 0.00 | 95 | 1010.0 |
| 20260506041212 | 47 | 98 | 1.7 | 3.5 | 0.07 | 0.72 | 0.00 | 95 | 1009.9 |
| 20260506040713 | 47 | 98 | 1.7 | 3.5 | 0.08 | 0.72 | 0.00 | 95 | 1010.1 |
| 20260506040318 | 47 | 71 | 0.9 | 3.5 | 0.09 | 0.72 | 0.00 | 95 | 1009.9 |
| 20260506035713 | 47 | 71 | 0.9 | 3.5 | 0.09 | 0.72 | 0.72 | 95 | 1009.9 |
| 20260506035212 | 47 | 60 | 0.9 | 2.6 | 0.10 | 0.72 | 0.72 | 95 | 1010.0 |
| 20260506034712 | 47 | 60 | 1.7 | 2.6 | 0.10 | 0.72 | 0.72 | 95 | 1009.9 |
| 20260506034212 | 47 | 59 | 1.7 | 2.6 | 0.11 | 0.72 | 0.72 | 95 | 1009.9 |
| 20260506033712 | 47 | 59 | 0.9 | 3.5 | 0.13 | 0.72 | 0.72 | 95 | 1010.0 |
| 20260506033212 | 47 | 58 | 0.9 | 3.5 | 0.14 | 0.72 | 0.72 | 95 | 1010.0 |
| 20260506032712 | 47 | 58 | 0.9 | 2.6 | 0.13 | 0.71 | 0.71 | 94 | 1010.2 |
| 20260506032212 | 47 | 58 | 0.0 | 1.7 | 0.12 | 0.69 | 0.68 | 94 | 1010.6 |
| 20260506031712 | 47 | 58 | 0.9 | 1.7 | 0.10 | 0.67 | 0.67 | 94 | 1010.4 |
| 20260506031212 | 47 | 58 | 0.9 | 3.5 | 0.08 | 0.65 | 0.65 | 94 | 1010.3 |
| 20260506030712 | 47 | 58 | 1.7 | 3.5 | 0.07 | 0.64 | 0.64 | 94 | 1010.0 |